Location: Frydek-Mistek
(49.6830°N, 18.3330°E)
Time: 03:48:58
(UTC+01:00)

ISS - Visible Passes

Search period start: 22 January 2019 00:00
Search period end: 01 February 2019 00:00
Orbit: 404 x 410 km, 51.6° (Epoch: 22 January)

Date Brightness Start Highest point End Pass type
(mag) Time Alt. Az. Time Alt. Az. Time Alt. Az.
23 Jan -1.9 18:39:26 10° SSW 18:41:05 22° S 18:41:05 22° S visible
24 Jan -2.0 17:48:46 10° S 17:51:12 19° SE 17:52:04 17° ESE visible
24 Jan -0.9 19:24:03 10° WSW 19:24:48 16° WSW 19:24:48 16° WSW visible
25 Jan -3.4 18:32:49 10° SW 18:35:43 51° S 18:35:43 51° S visible
26 Jan -2.9 17:41:42 10° SW 17:44:45 36° SSE 17:46:33 20° E visible
26 Jan -1.3 19:17:53 10° W 19:19:16 23° W 19:19:16 23° W visible
27 Jan -4.0 18:26:27 10° WSW 18:29:47 89° SSE 18:30:03 73° ENE visible
28 Jan -3.7 17:35:07 10° WSW 17:38:24 65° SSE 17:40:47 17° ENE visible
28 Jan -1.8 19:11:44 10° W 19:13:30 28° WNW 19:13:30 28° WNW visible
29 Jan -3.7 18:20:15 10° W 18:23:33 67° N 18:24:13 50° NE visible
30 Jan -3.8 17:28:47 10° WSW 17:32:05 82° NNW 17:34:53 14° ENE visible
30 Jan -2.2 19:05:31 10° WNW 19:07:36 34° WNW 19:07:36 34° WNW visible
31 Jan -3.6 18:14:02 10° W 18:17:18 59° N 18:18:17 39° ENE visible
31 Jan -0.4 19:50:40 10° WNW 19:50:59 12° WNW 19:50:59 12° WNW visible
